Flag for Micronesia Weather past 2 weeks in Weno, Truk, Micronesia

Now
80 °F

Mostly cloudy.


Feels Like: 87 °F
Forecast: 81 / 88 °F
Wind: 5 mph from North

Location: Truk Intl / Moen Island

Current Time: Apr 28, 2015 at 3:05:06 AM

Latest Report: Apr 28, 2015 at 1:50 AM


Visibility: 15 mi

Pressure: 29.82 "Hg

Humidity: 90%

Dew point: 77 °F

Location of WenoLocation

Historic Weather in Weno — Graph

°F

Weno temperature yesterday

Maximum temperature yesterday: 88 °F (at 12:57 PM)
Minimum temperature yesterday: 78 °F (at 6:54 PM)
Average temperature yesterday: 82 °F

Past Weeks' High & Low Weather Summary

 TemperatureHumidityPressure
High102 °F (Apr 25, 4:50 PM)96% (Apr 24, 11:53 PM)29.96 "Hg (Apr 24, 11:53 PM)
Low76 °F (Apr 25, 12:50 AM)47% (Apr 25, 4:50 PM)29.70 "Hg (Apr 22, 2:51 PM)
Average83 °F83%29.81 "Hg
* Reported Apr 13 1:50 AM — Apr 28 1:50 AM, Weno, Weather by CustomWeather, © 2015

Note: Actual official high and low records may vary slightly from our data, if they occured in-between our weather recording intervals... More about our weather records

Advertising

Weno weather history for previous 24 hours

 ConditionsComfort  
Time TempWeatherWind HumidityBarometerVisibility
1:50 AM
Tue, Apr 28
80 °FMostly cloudy.5 mph90%29.82 "Hg15 mi
12:50 AM79 °FMostly cloudy.5 mph91%29.84 "Hg15 mi
11:50 PM
Mon, Apr 27
79 °FMostly cloudy.5 mph92%29.85 "Hg15 mi
10:50 PM79 °FMostly cloudy.5 mph91%29.87 "Hg15 mi
9:51 PM79 °FMostly cloudy.6 mph92%29.87 "Hg15 mi
8:51 PM80 °FMostly cloudy.5 mph93%29.87 "Hg15 mi
7:54 PM79 °FOvercast.6 mph92%29.85 "Hg15 mi
6:54 PM78 °FScattered showers. Overcast.7 mph93%29.84 "Hg15 mi
5:53 PM78 °FSprinkles. Cloudy.7 mph95%29.83 "Hg14 mi
4:51 PM80 °FMostly cloudy.8 mph92%29.81 "Hg15 mi
3:54 PM85 °FPartly sunny.8 mph76%29.78 "Hg15 mi
2:55 PM87 °FBroken clouds.9 mph76%29.78 "Hg15 mi
1:59 PM87 °FBroken clouds.9 mph76%29.76 "Hg15 mi
12:57 PM88 °FMostly cloudy.9 mph75%29.78 "Hg15 mi
11:52 AM87 °FMostly cloudy.10 mph76%29.81 "Hg15 mi
10:50 AM83 °FMostly cloudy.5 mph86%29.83 "Hg15 mi
9:50 AM82 °FCloudy.6 mph88%29.84 "Hg15 mi
8:50 AM81 °FSprinkles. Cloudy.6 mph96%29.85 "Hg14 mi
7:50 AM81 °FSprinkles. Cloudy.6 mph86%29.85 "Hg15 mi
6:50 AM82 °FMore clouds than sun.3 mph86%29.84 "Hg15 mi
4:50 AM80 °FMostly cloudy.6 mph90%29.80 "Hg15 mi
3:50 AM80 °FMostly cloudy.5 mph89%29.79 "Hg15 mi
Weather by CustomWeather, © 2015

See weather overviewHow to use our weather pages